Regional Weather Roundup
Issued by NWS

Home | Current Version | Previous Version | Text Only | Print | Product List | Glossary On
Versions: 1 2 3 4 5 6 7 8 9 10 11 12 13 14 15 16 17 18 19 20 21 22 23 24 25 26 27 28 29 30 31 32 33 34 35 36 37 38 39 40 41 42 43 44 45 46 47 48 49 50
000
ASUS46 KSTO 021704
RWRCA

NORTHERN AND CENTRAL CA REGIONAL WEATHER ROUNDUP
NATIONAL WEATHER SERVICE SACRAMENTO CA
1000 AM PDT THU JUL 02 2015

NOTE: FAIR INDICATES FEW OR NO CLOUDS BELOW 12,000 FEET WITH NO
SIGNIFICANT WEATHER AND/OR OBSTRUCTIONS TO VISIBILITY.

CAZ001-003-021800-
NORTHWEST AREA

CITY           SKY/WX    TMP DP  RH WIND       PRES   REMARKS
CRESCENT CITY  CLOUDY    56  55  97 S10       29.95S FOG
UKIAH          PTSUNNY   79  48  33 CALM      29.92F
$$

CAZ006-505>513-021800-
BAY AREA

CITY           SKY/WX    TMP DP  RH WIND       PRES   REMARKS
SANTA ROSA     PTSUNNY   68  56  65 VRB3      29.94S
SAN RAFAEL     N/A       62  MM  MM MISG
NAPA           PTSUNNY   67  59  75 SW14      29.95S
CONCORD        CLOUDY    77  54  44 SW9       29.93S
OAKLAND CITY   N/A       62  MM  MM MISG
OAKLAND        PTSUNNY   64  57  78 NW8       29.98R
SAN FRAN CITY  N/A       61  MM  91 MISG
SAN FRAN ARPT  PTSUNNY   66  57  72 N3        29.97S
LIVERMORE      CLOUDY    78  55  44 W6        29.94R
HAYWARD        CLOUDY    68  58  70 NW7       29.97R
REDWOOD CITY   N/A       MM  MM  MM MISG
MOFFETT ARPT   CLOUDY    70  60  70 N5        29.98R
SAN JOSE ARPT  PTSUNNY   72  60  66 VRB3      29.96S
$$
CAZ034-037-514>518-021800-
CENTRAL COAST

CITY           SKY/WX    TMP DP  RH WIND       PRES   REMARKS
WATSONVILLE    PTSUNNY   67  57  70 VRB6      30.01S
SALINAS        PTSUNNY   64  57  78 W6        30.00F
MONTEREY       PTSUNNY   63  55  75 N3        30.01F
SAN LUIS OBISP PTSUNNY   73  56  54 SW3       29.99F
SANTA MARIA    PTSUNNY   67  58  72 CALM      30.00F
$$
CAZ015-016-021800-
NORTHERN SACRAMENTO VALLEY

CITY           SKY/WX    TMP DP  RH WIND       PRES   REMARKS
REDDING        MOSUNNY   92  55  28 CALM      29.88F HX  90
RED BLUFF      SUNNY     92  53  26 NE3       29.88F
OROVILLE       SUNNY     89  59  36 VRB3      29.88S
$$
CAZ016>018-021800-
SOUTHERN SACRAMENTO VALLEY

CITY           SKY/WX    TMP DP  RH WIND       PRES   REMARKS
BEALE AFB      SUNNY     85  49  27 VRB1      29.86S
MARYSVILLE     SUNNY     88  50  27 CALM      29.87F
SAC INTL ARPT  PTSUNNY   83  55  38 SE12      29.88R
MATHER AIRPORT PTSUNNY   82  52  34 S8        29.90R
DOWNTOWN SAC   N/A       81  MM  MM MISG
SAC EXEC ARPT  PTSUNNY   81  57  43 SW7       29.89R
VACAVILLE      PTSUNNY   85  52  32 SW10      29.88F
TRAVIS AFB     PTSUNNY   72  57  59 SW29      29.88R
$$
CAZ019>021-021800-
SAN JOAQUIN VALLEY

CITY           SKY/WX    TMP DP  RH WIND       PRES   REMARKS
STOCKTON       CLOUDY    81  56  42 CALM      29.91R
MODESTO        PTSUNNY   84  52  33 CALM      29.91R
MERCED         PTSUNNY   84  56  38 CALM      29.89F
LEMOORE        CLOUDY    90  53  28 NW7       29.90S
FRESNO         CLOUDY    85  63  47 S6        29.91F
HANFORD        PTSUNNY   84  63  49 SW3       29.90S
PORTERVILLE    PTSUNNY   86  48  26 CALM      29.93F
BAKERSFIELD    MOSUNNY   92  45  19 CALM      29.91F
$$
CAZ011-012-071-021800-
NORTHERN MOUNTAINS

CITY           SKY/WX    TMP DP  RH WIND       PRES   REMARKS
YREKA          SUNNY     85  51  31 CALM      30.03F
MOUNT SHASTA   SUNNY     86  54  33 CALM      30.07F
ALTURAS        SUNNY     81  49  32 VRB3      30.14F
$$
CAZ011-012-071-021800-
SIERRA NEVADA MTNS

CITY           SKY/WX    TMP DP  RH WIND       PRES   REMARKS
BLUE CANYON    SUNNY     78  50  37 S5        30.22S
TRUCKEE        SUNNY     75  52  43 CALM      30.26F
TAHOE VLY ARPT SUNNY     76  55  48 NE3       30.27F
$$




USA.gov is the U.S. government's official web portal to all federal, state and local government web resources and services.